Location: *
(53.9002°N, 27.5624°E)
Time: 13:40:15
(UTC+00:00)

Cosmos 2369 Rocket - Pass Details

Date: 12 November 2019
Orbit: 830 x 851 km, 71.0° (Epoch: 10 December)

Event Time Altitude Azimuth Distance (km) Brightness Sun altitude
Rises 17:28:19 0° 282° (WNW) 3,382 6.6 -28.1°
Reaches altitude 10° 17:31:44 10° 303° (WNW) 2,448 5.4 -28.6°
Maximum altitude 17:35:13 16° 342° (NNW) 2,027 4.4 -29.1°
Enters shadow 17:37:30 13° 9° (N) 2,218 4.4 -29.4°
